User: anonymous
Location: Unspecified
(0.0000°N, 0.0000°E)
Time: 00:24:17
(UTC+00:00)
Language:

OPTUS D1 - Orbit

View from above orbital plane
View from above orbital plane
View from above satellite
View from above satellite

Ground track
Ground track

The orbit data is extracted from the following two-line orbital elements,

1 29495U 06043B   14213.16854456 -.00000116  00000-0  10000-3 0  5362
2 29495 000.0449 265.7005 0002880 222.2117 042.4486 01.00272217 28648
Epoch (UTC): 01 August 2014 04:02:42
Eccentricity: 0.0002880
inclination: 0.0449°
perigee height: 35774 km
apogee height: 35798 km
right ascension of ascending node: 265.7005°
argument of perigee: 222.2117°
revolutions per day: 1.00272217
mean anomaly at epoch: 42.4486°
orbit number at epoch: 2864

The dashed part of the orbit path shows where the satellite is in the earth's shadow,  

DLR